"Pseudo-MPEC" for P10U7Au

Created 2019 Nov 13 10:07:10 UT using Find_Orb

Click here for an explanation of pseudo-MPECs

 
 Astrometry: 
     P10U7Au  C2019 11 04`f2dK292=5h_MQOHtU^s1kZpwAstrometry'HuBredacted;B5b/F51
     P10U7Au  C2019 11 04yhu89MCRUtclick[#mV2+)Cv=herenMx#A98)HlqC*L62IBgforwF51
     P10U7Au  C2019 11 04$Dj4WOqT%4H-3e0explanation.XHk:c#yi:e8\R5:PZ(acypihrF51

Station data:
(F51) Pan-STARRS 1, Haleakala  (N20.707235 W156.255910)  US/Hawaii.
   Observers N. Primak, A. Schultz, S. Watters, J. Thiel, T. Goggia. Measurer
   PS1 Science Consortium. 1.8-m Ritchey-Chrétien + CCD.

Orbital elements:  P10U7Au
   Perihelion 2019 Jun 7.105220 +/- 329 TT =  2:31:31 (JD 2458641.605220)
Epoch 2019 Nov  5.0 TT = JDT 2458792.5   Earth MOID: 0.4151   Ma: 0.0639
M  37.35953243 +/- 70               (J2000 ecliptic)          AutoNEOCP
n   0.24758664 +/- 0.201            Peri.  232.78687 +/- 80
a   2.51179719 +/- 1.36             Node    92.19313 +/- 31
e   0.4384794 +/- 0.248             Incl.    7.47376 +/- 45
P   3.98                   H 19.9   G  0.15   U 11.7  SR
q 1.41042573 +/- 1.03    Q 3.61316865 +/- 31.1
From 3 observations 2019 Nov. 4 (47.5 min); mean residual 0".04
Residuals in arcseconds: 
191104 F51  .02-  .05-    191104 F51  .02+  .08+    191104 F51  .01-  .03-    

Ephemerides (geocentric):
Date (UTC) HH   RA              Dec         delta   r     elong  mag " sig PA
---- -- -- --  -------------   -----------  ------ ------ -----  --- ---- ---
2019 11 13 10  03 37 41.330   +09 38 53.68  1.0051 1.9867 169.7 21.8  29d 174
2019 11 13 11  03 37 38.155   +09 38 56.18  1.0053 1.9869 169.7 21.8  29d 174
2019 11 13 12  03 37 34.981   +09 38 58.70  1.0055 1.9872 169.7 21.8  29d 174
2019 11 13 13  03 37 31.807   +09 39 01.22  1.0057 1.9874 169.8 21.8  29d 174
2019 11 13 14  03 37 28.634   +09 39 03.76  1.0059 1.9876 169.8 21.8  29d 174
2019 11 13 15  03 37 25.461   +09 39 06.31  1.0061 1.9878 169.8 21.8  29d 174
2019 11 13 16  03 37 22.289   +09 39 08.86  1.0063 1.9880 169.8 21.8  29d 174
2019 11 13 17  03 37 19.117   +09 39 11.43  1.0065 1.9883 169.9 21.8  29d 174
2019 11 13 18  03 37 15.946   +09 39 14.01  1.0067 1.9885 169.9 21.8  29d 174
2019 11 13 19  03 37 12.775   +09 39 16.60  1.0069 1.9887 169.9 21.8  29d 174
2019 11 13 20  03 37 09.605   +09 39 19.20  1.0071 1.9889 169.9 21.8  29d 174
2019 11 13 21  03 37 06.436   +09 39 21.81  1.0073 1.9891 170.0 21.8  29d 174
2019 11 13 22  03 37 03.267   +09 39 24.43  1.0075 1.9894 170.0 21.8  29d 174
2019 11 13 23  03 37 00.099   +09 39 27.06  1.0077 1.9896 170.0 21.8  29d 174
2019 11 14 00  03 36 56.932   +09 39 29.71  1.0079 1.9898 170.0 21.8  29d 174
2019 11 14 01  03 36 53.765   +09 39 32.36  1.0081 1.9900 170.0 21.8  29d 174
2019 11 14 02  03 36 50.599   +09 39 35.03  1.0083 1.9902 170.1 21.8  29d 174
2019 11 14 03  03 36 47.433   +09 39 37.70  1.0085 1.9905 170.1 21.8  29d 174
2019 11 14 04  03 36 44.268   +09 39 40.39  1.0087 1.9907 170.1 21.8  29d 174
2019 11 14 05  03 36 41.104   +09 39 43.09  1.0089 1.9909 170.1 21.8  29d 174
2019 11 14 06  03 36 37.941   +09 39 45.79  1.0091 1.9911 170.1 21.8  29d 174
2019 11 14 07  03 36 34.778   +09 39 48.51  1.0093 1.9913 170.2 21.8  29d 174
2019 11 14 08  03 36 31.615   +09 39 51.24  1.0095 1.9916 170.2 21.8  29d 174
2019 11 14 09  03 36 28.454   +09 39 53.98  1.0097 1.9918 170.2 21.8  29d 174
2019 11 14 10  03 36 25.293   +09 39 56.74  1.0099 1.9920 170.2 21.8  30d 174
2019 11 14 11  03 36 22.133   +09 39 59.50  1.0101 1.9922 170.2 21.8  30d 174
2019 11 14 12  03 36 18.974   +09 40 02.27  1.0103 1.9924 170.3 21.8  30d 174
2019 11 14 13  03 36 15.815   +09 40 05.06  1.0105 1.9927 170.3 21.8  30d 174
2019 11 14 14  03 36 12.657   +09 40 07.85  1.0107 1.9929 170.3 21.8  30d 174
2019 11 14 15  03 36 09.500   +09 40 10.66  1.0109 1.9931 170.3 21.8  30d 174
2019 11 14 16  03 36 06.344   +09 40 13.47  1.0111 1.9933 170.3 21.8  30d 174
2019 11 14 17  03 36 03.188   +09 40 16.30  1.0113 1.9935 170.3 21.8  30d 174
2019 11 14 18  03 36 00.033   +09 40 19.14  1.0115 1.9938 170.4 21.8  30d 174
2019 11 14 19  03 35 56.879   +09 40 21.99  1.0117 1.9940 170.4 21.8  30d 174
2019 11 14 20  03 35 53.725   +09 40 24.85  1.0119 1.9942 170.4 21.8  30d 174
2019 11 14 21  03 35 50.573   +09 40 27.72  1.0121 1.9944 170.4 21.8  31d 174
2019 11 14 22  03 35 47.421   +09 40 30.61  1.0124 1.9946 170.4 21.8  31d 174
2019 11 14 23  03 35 44.270   +09 40 33.50  1.0126 1.9949 170.4 21.8  31d 174
2019 11 15 00  03 35 41.120   +09 40 36.40  1.0128 1.9951 170.4 21.8  31d 174
2019 11 15 01  03 35 37.971   +09 40 39.32  1.0130 1.9953 170.5 21.8  31d 174
2019 11 15 02  03 35 34.822   +09 40 42.24  1.0132 1.9955 170.5 21.8  31d 174
2019 11 15 03  03 35 31.674   +09 40 45.18  1.0134 1.9957 170.5 21.8  31d 174
2019 11 15 04  03 35 28.528   +09 40 48.13  1.0136 1.9960 170.5 21.8  31d 174
2019 11 15 05  03 35 25.382   +09 40 51.09  1.0138 1.9962 170.5 21.8  32d 174
2019 11 15 06  03 35 22.236   +09 40 54.06  1.0140 1.9964 170.5 21.8  32d 174
2019 11 15 07  03 35 19.092   +09 40 57.04  1.0142 1.9966 170.5 21.8  32d 174
2019 11 15 08  03 35 15.949   +09 41 00.03  1.0145 1.9969 170.6 21.8  32d 174
2019 11 15 09  03 35 12.806   +09 41 03.04  1.0147 1.9971 170.6 21.8  32d 174